www.pogodaiklimat.ru

Погода и климат >> Архив погоды >> Индонезия >> Кендари


ПОГОДА в Кендари

  • Прогноз погоды в Кендари
  • Монитор погоды в Кендари

АРХИВ ПОГОДЫ в Кендари

Время (UTC), дата Ветер
(напр.,м/с)
 
Видим.   Явления Облачность Т
(С)
Тd
(С)
f
(%)
Тe
(С)
Тes
(С)
Комфортность P
(гПа)
Po
(гПа)
Тmin
(С)
Tmax
(С)
R
(мм)
R24
(мм)
S
(см)
06 12.06 В 2 6000 м слаб. дождь 9/5 420 м
[Sc As op Ci fib]
+26.2 +25.9 98 +39 +43 очень
душно
1011.4 1005.4 6
09 12.06 СЗ 2 10 км в посл. час дождь 8/4 450 м
[Sc As op Ci fib]
+26.4 +26.1 98 +39 +40 очень
душно
1011.5 1005.5 3
12 12.06 ЮВ 2 7000 м слаб. дождь 8/4 500 м
[Sc As op Ci fib]
+25.2 +25.2 100 +36 +36 очень
душно
1013.5 1007.5 +29.8 0.3
00 13.06 З 3 6000 м 6/5 360 м
[Sc As trans Ci fib]
+25.6 +24.7 95 +36 +38 очень
душно
1013.8 1007.8 +23.0 14
03 13.06 штиль 0 10 км 5/4 480 м
[Cu med, cong As trans Ci fib]
+28.2 +24.7 81 +40 +52 опасность
солнечного
удара
1013.1 1007.1
06 13.06 СВ 2 6000 м слаб. дождь 8/5 480 м
[Cu med, cong Ac As Ci fib]
+27.4 +25.4 89 +40 +45 очень
душно
1010.2 1004.2 12
09 13.06 СВ 2 9000 м осадки на расстоянии 6/4 480 м
[Cu med, cong Ac As Ci fib]
+28.0 +25.2 85 +41 +41 опасность
перегрева
1010.5 1004.5 0.0
12 13.06 ЮЗ 1 8000 м {дождь} 4/3 480 м
[Sc diur, vesp As trans Ci fib]
+25.4 +24.5 95 +36 +36 очень
душно
1012.8 1006.8 +30.2 0.0
00 14.06 СЗ 2 9000 м 4/3 420 м
[Sc Ac As Ci fib]
+25.8 +24.3 91 +36 +39 очень
душно
1013.4 1007.4 +23.8 12
03 14.06 В 6 7000 м осадки на расстоянии 8/5 480 м
[Cu med, cong Ac As Ci fib]
+28.8 +23.0 71 +39 +41 очень
душно
1012.8 1006.8
06 14.06 С 3 10 км 5/4 480 м
[Cu med, cong As trans Ci fib]
+29.8 +24.3 72 +42 +47 опасность
перегрева
1012.5 1006.5
12 14.06 штиль 0 9000 м 4/3 500 м
[Sc As trans Ci fib]
+25.0 +23.6 92 +34 +34 очень
душно
1012.6 1006.6 +31.4
00 15.06 З 4 5000 м дымка 5/3 360 м
[Sc As op Ci fib]
+24.4 +23.5 95 +33 +35 очень
душно
1014.5 1008.5 +23.0
03 15.06 З 4 10 км 5/4 480 м
[Sc As trans Ci fib]
+28.6 +24.3 78 +40 +47 очень
душно
1013.8 1007.8
06 15.06 СВ 2 10 км 6/4 500 м
[Cu med, cong Ac As Ci fib]
+31.4 +24.4 66 +44 +50 опасность
перегрева
1011.5 1005.5
09 15.06 В 2 10 км 5/4 500 м
[Sc As trans Ci fib]
+28.2 +24.7 81 +40 +40 очень
душно
1011.9 1005.9
12 15.06 штиль 0 9000 м 6/4 500 м
[Sc Ac As Ci fib]
+25.4 +24.5 95 +36 +36 очень
душно
1014.0 1008.0 +32.2
00 16.06 З 2 10 км 3/3 500 м
[Sc As trans Ci fib]
+23.6 +22.1 91 +30 +34 очень
душно
1014.7 1008.7 +21.4
03 16.06 В 2 10 км 5/3 540 м
[Sc As op Ci fib]
+28.6 +24.9 80 +41 +51 опасность
перегрева
1014.4 1008.4
06 16.06 СВ 3 10 км 6/4 540 м
[Sc Ac As Ci fib]
+29.8 +24.6 74 +42 +48 опасность
перегрева
1011.8 1005.8
09 16.06 СВ 3 10 км 5/3 540 м
[Sc As op Ci fib]
+28.7 +25.2 81 +42 +42 опасность
перегрева
1011.0 1005.0
12 16.06 СВ 2 10 км 6/3 500 м
[Sc Ac As Ci fib]
+25.6 +24.4 93 +36 +36 очень
душно
1013.5 1008.4 +30.6
00 17.06 штиль 0 10 км 4/1 500 м
[Sc Ac trans Ci fib]
+25.6 +24.1 91 +35 +40 очень
душно
1014.9 1008.9 +23.2
03 17.06 Ю 1 10 км 5/4 480 м
[Cu med, cong As trans Ci fib]
+28.0 +26.3 91 +43 +54 опасность
перегрева
1014.8 1007.8
06 17.06 В 2 10 км 4/3 480 м
[Cu med, cong Ac trans Ci fib]
+30.2 +25.0 74 +44 +52 опасность
перегрева
1012.6 1006.5
09 17.06 штиль 0 10 км 4/3 480 м
[Cu med, cong Ac As Ci fib]
+27.6 +24.4 83 +39 +39 очень
душно
1012.5 1006.5
12 17.06 З 2 10 км 5/4 480 м
[Sc diur, vesp Ac As Ci fib]
+26.0 +24.2 90 +36 +36 очень
душно
1014.7 1008.7 +31.4
00 18.06 штиль 0 10 км 4/3 480 м
[Sc Ac As Ci fib]
+25.0 +24.7 98 +35 +39 очень
душно
1014.9 1008.9 +23.6
03 18.06 З 2 10 км 6/4 500 м
[Sc As op Ci fib]
+28.2 +23.5 76 +38 +47 очень
душно
1014.0 1008.0
06 18.06 Ю 3 10 км 8/4 540 м
[Sc As op Ci fib]
+28.8 +23.9 75 +40 +44 очень
душно
1011.9 1005.9
09 18.06 СВ 2 10 км 9/4 540 м
[Sc Ac As Ci fib]
+27.8 +24.3 81 +39 +39 очень
душно
1011.6 1005.6
12 18.06 Ю 1 8000 м зарница {гроза} 8/5 450 м
[Cb cap As op Ci fib]
+25.8 +24.6 93 +36 +36 очень
душно
1014.8 1008.6 +31.2
00 19.06 ЮЗ 2 10 км 9/4 500 м
[Sc Ac As Ci fib]
+25.6 +39.0 100 +37 +39 очень
душно
1013.8 1007.8 +22.8
03 19.06 В 2 10 км 5/4 480 м
[Cu med, cong Ac As Ci fib]
+29.4 +25.4 79 +43 +52 опасность
перегрева
1012.9 1006.9

 

Местоположение метеостанции Кендари (Индонезия): широта -4.10 долгота 122.43 высота над уровнем моря 50 м.

В архиве по умолчанию представлена погода в Кендари за последнюю неделю. Архивные данные за месяц целиком и за предыдущие месяцы, начиная с января 2011 года, Вы можете получить, выбрав интересующий диапазон дат из раскрывающегося списка и нажав кнопку "Ввод!".


*Определитесь, кто Вы:
робот инопланетянин человек

Внимание! Время в таблицах - всемирное. Для получения местного времени необходимо прибавить поправку, которая равна 8 ч.

Смотрите также архив погоды в соседних городах и на ближайших метеорологических станциях:

Погода в Колаке (Индонезия) (102 км)
Погода в Бау-Бау (Индонезия) (154 км)
Погода в Масамбе (Индонезия) (287 км)
Погода в Аэропорту Султана Хасануддин (Индонезия) (337 км)
Погода в Уджангпанданге (Индонезия) (337 км)
Погода в Тауне (Индонезия) (342 км)
Погода в Посо (Индонезия) (357 км)
Погода в Лувуке (Индонезия) (358 км)
Погода в Маджене (Индонезия) (420 км)
Погода на Санане (Индонезия) (456 км)

Пояснения к столбцам:

Ветер - указаны скорость ветра в м/с - средняя за 10 мин, порывы в срок и между сроками (в фигурных скобках) и направление, откуда дует ветер: С - северный, СВ - северо-восточный, В - восточный, ЮВ - юго-восточный, Ю - южный, ЮЗ - юго-западный, З - западный, СЗ - северо-западный.
Видимость - горизонтальная дальность видимости в метрах или километрах. При видимости от 1 до 10 км при отсутствии осадков обычно наблюдается дымка, при ухудшении видимости до 1 км и менее - туман. В сухую погоду видимость может ухудшаться дымом, пылью или мглою.
Явления - указаны атмосферные явления, наблюдавшиеся в срок или в последний час перед сроком; фигурными скобками обозначены явления, наблюдавшиеся между сроками (за 1-3 часа до срока); квадратными скобками обозначены град или гололедные отложения с указанием их диаметра в мм.
Облачность - указаны через наклонную черту общая и нижняя облачность в баллах и высота нижней границы облаков в метрах; квадратными скобками обозначены формы облаков: Ci - перистые, Cs - перисто-слоистые, Cc - перисто-кучевые, Ac - высококучевые, As - высокослоистые, Sc - слоисто-кучевые, Ns - слоисто-дождевые, Cu - кучевые, Cb - кучево-дождевые. Подробнее классификацию облаков см. в Атласе облаков (PDF).
T - Температура воздуха - температура, измеренная на высоте 2 м над землей.
Td - Температура точки росы - температура, при понижении до которой содержащийся в воздухе водяной пар достигнет насыщения.
f - Относительная влажность воздуха - влажноcть воздуха, измеренная на высоте 2 м над землей.
Te - Эффективная температура - температура, которую ощущает одетый по сезону человек в тени. Характеристика душности погоды. При расчете учитывается влияние влажности воздуха и скорости ветра на теплоощущения человека.
Tes - Эффективная температура на солнце - температура, которую ощущает человек, с поправкой на солнечный нагрев. Характеристика знойности погоды. Зависит от высоты солнца над горизонтом, облачности и скорости ветра. Ночью, в пасмурную погоду, а также при ветре 12 м/с и более поправка равна нулю.
P - Атмосферное давление - приведенное к уровню моря атмосферное давление.
Po - Атмосферное давление - измеренное на уровне метеостанции атмосферное давление.
Tmin - Минимальная температура - минимум температуры воздуха на высоте 2 м над землей.
Tmax - Максимальная температура - максимум температуры воздуха на высоте 2 м над землей.
R - Количество осадков - Количество выпавших осадков за период времени, мм. При наведении курсора мыши на число - период времени, за который выпало указанное количество осадков.
R24 - Количество осадков - Количество выпавших осадков за 24 часа, мм.
S - Снежный покров - Высота снежного покрова, см. При наведении курсора мыши на число - состояние снежного покрова и степень покрытия местности в баллах.